Location: Newark
(25.6108°S, 54.5803°W)
Time: 08:10:15
(UTC+00:00)

Courier 1B - Pass Details

Date: 01 November 2020
Orbit: 962 x 1209 km, 28.3° (Epoch: 02 December)

Event Time Altitude Azimuth Distance (km) Brightness Sun altitude
Rises 06:59:52 0° 261° (W) 4,116 - -23.4°
Reaches altitude 10° 07:02:59 10° 268° (W) 3,152 - -22.8°
Exits shadow 07:08:56 35° 315° (NW) 1,834 8.4 -21.7°
Maximum altitude 07:10:03 37° 332° (NNW) 1,783 8.4 -21.5°
Drops below altitude 10° 07:16:57 10° 36° (NE) 3,071 10.2 -20.1°
Sets 07:19:57 0° 44° (NE) 3,999 10.9 -19.5°
